Location: Linton
(52.0940°N, 0.2850°E)
Time: 04:21:04
(UTC+00:00)

ISS - Pass Details

Date: 11 November 2017
Orbit: 402 x 407 km, 51.6° (Epoch: 21 November)

Event Time Altitude Azimuth Distance (km) Brightness Sun altitude
Exits shadow 05:42:32 27° 266° (W) 814 -2.9 -13.8°
Maximum altitude 05:44:03 57° 197° (SSW) 482 -3.5 -13.5°
Drops below altitude 10° 05:47:15 10° 119° (ESE) 1,454 0.3 -13.1°
Sets 05:49:21 0° 115° (ESE) 2,312 1.8 -12.7°
